LEMUR-2-BROWNCOW (43125 NORAD) Tracking and Keplerian Element Data

This shows tracking and keplerian element data for the satellite.

Feedback or suggestion? Click here.




ElementValue
Catalog43125
NameLEMUR-2-BROWNCOW
Epoch Orbit427
Epoch Day40.40720779
Epoch Year2018
RAAN102.6527
Inclination97.5517
Eccentricity0.0010502
Argument of Perigee175.6482
Mean Anonmoly184.4847
Mean Motion15.22191015
Decay Rate1.673E-05
L11 43125U 18004Q 18040.40720779 .00001673 00000-0 75930-4 0 9992
L22 43125 97.5517 102.6527 0010502 175.6482 184.4847 15.22191015 4271

Live tracking and technical data element details for LEMUR-2-BROWNCOW (NORAD 43125). LEMUR-2-BROWNCOW can be tracked NOW for your location showing map with azimuth and elevation plus other details from your city location.

Track the satellite on the map from your city or location and see movement details for azimuth, elevation, latitude, longitude, range, height, and movement on the map or in text.







IsCatalogInMostPopularTable: catalog: 43125, numindb: 118
Update: records affected: 1



GetName: 43125 LEMUR-2-BROWNCOW

Hit Count: updated at: Mon, 19 Nov 2018 14:32:24 GMT